Regional Weather Roundup
Issued by NWS Sioux Falls, SD

Home | Current Version | Previous Version | Text Only | Print | Product List | Glossary Off
Versions: 1 2 3 4 5 6 7 8 9 10 11 12 13 14 15 16 17 18 19 20 21 22 23 24 25 26 27 28 29 30 31 32 33 34 35 36 37 38 39 40 41 42 43 44 45 46 47 48 49 50

000
ASUS43 KFSD 300910
RWRFSD

WEATHER ROUNDUP FOR SE SOUTH DAKOTA/SW MINNESOTA/NW IOWA
NATIONAL WEATHER SERVICE SIOUX FALLS SD
400 AM CDT TUE SEP 30 2014

NOTE: "FAIR" INDICATES FEW OR NO CLOUDS BELOW 12,000 FEET WITH NO
SIGNIFICANT WEATHER AND OR OBSTRUCTIONS TO VISIBILITY.


SDZ038>040-050-052>070-301000-
SOUTHEAST SOUTH DAKOTA

CITY           SKY/WX    TMP DP  RH WIND       PRES   REMARKS
CHAMBERLAIN    CLOUDY    58  56  92 E16G23    29.76F
HURON          MOCLDY    54  50  86 SE12G20   29.85F
MADISON        FAIR      48  48 100 SE9       29.93F
MITCHELL       CLOUDY    55  52  89 SE15G24   29.85F
SIOUX FALLS    MOCLDY    53  49  86 E14       29.92F
WINNER         CLOUDY    64  59  83 SE23      29.70F
YANKTON        CLOUDY    59  55  88 E10G18    29.87F
$$

MNZ071-072-080-081-089-090-097-098-301000-
SOUTHWEST MINNESOTA

CITY           SKY/WX    TMP DP  RH WIND       PRES   REMARKS
FAIRMONT       CLEAR     46  43  87 E6        30.02F
JACKSON        MOCLDY    48  45  87 E8        30.01F
LUVERNE        PTCLDY    54  48  82 E6        29.97F
MARSHALL       CLOUDY    46  43  87 E12       29.99F
MONTEVIDEO     PTCLDY    43  43 100 SE13      30.03F
PIPESTONE      PTCLDY    50  46  87 SE12      29.95F
REDWOOD FALLS  PTCLDY    45  43  93 E10       30.04F
TRACY          MOCLDY    47  46  95 E8        30.01F
WINDOM         CLEAR     46  45  93 E9        30.01F
WORTHINGTON    PTCLDY    48  46  93 E9        30.00F
$$

IAZ001>003-012>014-020>022-031-032-NEZ013-014-SDZ071-301000-
NORTHWEST IOWA

CITY           SKY/WX    TMP DP  RH WIND       PRES   REMARKS
CHEROKEE       PTCLDY    52  52  97 E3        29.97F
DENISON        CLOUDY    57  57 100 E9        29.94F
ESTHERVILLE    PTCLDY    48  47  96 E8        30.00F
LE MARS          N/A     55  52  88 E9        29.94F
ORANGE CITY    PTCLDY    55  50  82 E12       29.95F
SHELDON        CLOUDY    52  50  93 E12       29.95F
SIOUX CITY     CLOUDY    59  56  89 E9        29.91F
SPENCER        CLEAR     51  48  89 E13       29.99F
STORM LAKE     PTCLDY    52  50  93 E10       29.98F
$$

ABBREVIATIONS USED IN REMARKS
   TC - TEMPERATURE IN CELSIUS
  WCI - WIND CHILL INDEX
   HX - HEAT INDEX
  VSB - VISIBILITY



USA.gov is the U.S. government's official web portal to all federal, state and local government web resources and services.